User: anonymous   Login
Location: Unspecified
(0.0000°N, 0.0000°E)
Time: 10:10:24
(UTC+02:00)
Language:

Resurs 01 Rocket - Orbit

View from above orbital plane
View from above orbital plane
View from above satellite
View from above satellite

Ground track
Ground track

The orbit data is extracted from the following two-line orbital elements,

1 23343U 94074B   15148.54711912  .00000177  00000-0  33094-4 0  9996
2 23343 098.2193 163.6534 0006083 327.2432 146.0548 14.76520683106059
Epoch (UTC): 28 May 2015 13:07:51
Eccentricity: 0.0006083
inclination: 98.2193°
perigee height: 636 km
apogee height: 644 km
right ascension of ascending node: 163.6534°
argument of perigee: 327.2432°
revolutions per day: 14.76520683
mean anomaly at epoch: 146.0548°
orbit number at epoch: 10605

The dashed part of the orbit path shows where the satellite is in the earth's shadow,  

DLR